TimeEST,TemperatureF,Dew PointF,Humidity,Sea Level PressureIn,VisibilityMPH,Wind Direction,Wind SpeedMPH,Gust SpeedMPH,PrecipitationIn,Events,Conditions,WindDirDegrees,DateUTC
12:51 AM,33.1,27.0,78,30.29,10.0,Calm,Calm,-,N/A,,Overcast,0,2013-11-22 05:51:00
1:51 AM,33.1,27.0,78,30.26,10.0,Calm,Calm,-,N/A,,Overcast,0,2013-11-22 06:51:00
2:51 AM,33.1,27.0,78,30.25,10.0,Calm,Calm,-,N/A,,Overcast,0,2013-11-22 07:51:00
3:49 AM,33.8,28.4,81,30.18,6.0,SW,3.5,-,0.00,Snow,Light Snow,220,2013-11-22 08:49:00
3:51 AM,33.1,28.9,85,30.23,6.0,SW,4.6,-,0.00,Snow,Light Snow,230,2013-11-22 08:51:00
4:51 AM,32.0,30.9,96,30.21,4.0,Calm,Calm,-,0.02,Snow,Light Snow,0,2013-11-22 09:51:00
5:03 AM,32.0,32.0,100,30.14,2.5,Calm,Calm,-,0.01,Snow,Light Snow,0,2013-11-22 10:03:00
5:32 AM,32.0,32.0,100,30.13,1.8,Calm,Calm,-,0.03,Snow,Light Snow,0,2013-11-22 10:32:00
5:51 AM,32.0,32.0,100,30.19,2.0,Calm,Calm,-,0.04,Snow,Light Snow,0,2013-11-22 10:51:00
6:19 AM,32.0,32.0,100,30.12,4.0,Calm,Calm,-,0.02,Snow,Light Snow,0,2013-11-22 11:19:00
6:51 AM,32.0,32.0,100,30.17,4.0,Calm,Calm,-,0.03,,Overcast,0,2013-11-22 11:51:00
7:51 AM,32.0,32.0,100,30.14,5.0,Calm,Calm,-,0.00,,Overcast,0,2013-11-22 12:51:00
8:02 AM,33.8,32.0,93,30.08,5.0,Calm,Calm,-,N/A,,Overcast,0,2013-11-22 13:02:00
8:47 AM,33.8,32.0,93,30.07,6.0,Calm,Calm,-,N/A,,Overcast,0,2013-11-22 13:47:00
8:51 AM,33.1,32.0,96,30.12,6.0,Calm,Calm,-,N/A,,Overcast,0,2013-11-22 13:51:00
9:03 AM,33.8,32.0,93,30.07,5.0,Calm,Calm,-,N/A,,Overcast,0,2013-11-22 14:03:00
9:30 AM,33.8,32.0,93,30.05,2.5,Calm,Calm,-,N/A,,Overcast,0,2013-11-22 14:30:00
9:37 AM,33.8,32.0,93,30.05,3.0,Calm,Calm,-,N/A,,Overcast,0,2013-11-22 14:37:00
9:51 AM,33.1,32.0,96,30.11,3.0,Calm,Calm,-,N/A,,Overcast,0,2013-11-22 14:51:00
10:28 AM,33.8,33.8,100,30.03,3.0,Calm,Calm,-,0.00,,Overcast,0,2013-11-22 15:28:00
10:35 AM,33.8,32.0,93,30.02,2.5,Calm,Calm,-,0.00,,Overcast,0,2013-11-22 15:35:00
10:51 AM,33.1,33.1,100,30.07,4.0,Calm,Calm,-,0.00,,Overcast,0,2013-11-22 15:51:00
11:51 AM,35.1,34.0,96,30.04,6.0,Calm,Calm,-,N/A,,Overcast,0,2013-11-22 16:51:00
12:51 PM,36.0,35.1,97,30.01,4.0,Calm,Calm,-,N/A,,Overcast,0,2013-11-22 17:51:00
1:18 PM,35.6,35.6,100,29.96,2.0,Calm,Calm,-,N/A,,Overcast,0,2013-11-22 18:18:00
1:27 PM,35.6,35.6,100,29.96,1.8,Calm,Calm,-,N/A,,Overcast,0,2013-11-22 18:27:00
1:51 PM,36.0,36.0,100,30.00,1.5,Calm,Calm,-,N/A,,Overcast,0,2013-11-22 18:51:00
2:05 PM,35.6,35.6,100,29.94,0.8,Calm,Calm,-,N/A,,Overcast,0,2013-11-22 19:05:00
2:51 PM,37.0,37.0,100,29.97,0.5,Calm,Calm,-,0.01,Fog,Fog,0,2013-11-22 19:51:00
3:09 PM,37.4,37.4,100,29.92,0.2,Calm,Calm,-,N/A,Fog,Fog,0,2013-11-22 20:09:00
3:51 PM,37.0,37.0,100,29.95,0.2,SW,4.6,-,N/A,Fog,Fog,220,2013-11-22 20:51:00
4:01 PM,37.4,37.4,100,29.90,0.8,SW,4.6,-,N/A,,Overcast,220,2013-11-22 21:01:00
4:11 PM,37.4,37.4,100,29.89,1.5,SW,4.6,-,N/A,,Overcast,230,2013-11-22 21:11:00
4:51 PM,37.0,37.0,100,29.92,2.0,Calm,Calm,-,N/A,,Overcast,0,2013-11-22 21:51:00
5:08 PM,37.4,37.4,100,29.86,1.8,SSW,3.5,-,N/A,,Overcast,210,2013-11-22 22:08:00
5:43 PM,37.4,37.4,100,29.85,2.0,SW,3.5,-,N/A,,Overcast,230,2013-11-22 22:43:00
5:51 PM,37.0,37.0,100,29.89,1.5,SSW,3.5,-,0.00,,Overcast,210,2013-11-22 22:51:00
6:51 PM,37.9,37.9,100,29.86,1.2,SW,5.8,-,0.00,,Overcast,220,2013-11-22 23:51:00
7:28 PM,39.2,39.2,100,29.81,2.5,WSW,8.1,-,0.01,Rain,Light Rain,240,2013-11-23 00:28:00
7:41 PM,39.2,39.2,100,29.81,3.0,SW,8.1,-,0.02,Rain,Light Rain,230,2013-11-23 00:41:00
7:51 PM,39.0,39.0,100,29.85,3.0,WSW,8.1,-,0.02,Rain,Light Rain,240,2013-11-23 00:51:00
8:02 PM,39.2,39.2,100,29.81,4.0,WSW,8.1,-,0.01,Rain,Light Rain,240,2013-11-23 01:02:00
8:21 PM,39.2,37.4,93,29.80,7.0,WSW,6.9,20.7,0.01,,Overcast,250,2013-11-23 01:21:00
8:30 PM,39.2,37.4,93,29.81,5.0,WSW,8.1,-,0.01,Rain,Light Rain,250,2013-11-23 01:30:00
8:51 PM,37.9,37.0,97,29.85,8.0,WSW,10.4,21.9,0.03,Rain,Light Rain,250,2013-11-23 01:51:00
9:37 PM,37.4,37.4,100,29.80,6.0,WSW,6.9,-,0.01,Rain,Light Rain,250,2013-11-23 02:37:00
9:51 PM,37.0,36.0,96,29.86,5.0,West,8.1,-,0.03,Rain,Light Rain,260,2013-11-23 02:51:00
10:13 PM,37.4,35.6,93,29.81,7.0,WSW,9.2,-,0.00,,Overcast,250,2013-11-23 03:13:00
10:38 PM,35.6,35.6,100,29.81,7.0,West,8.1,-,0.00,,Overcast,260,2013-11-23 03:38:00
10:51 PM,35.1,34.0,96,29.88,5.0,Variable,5.8,17.3,0.01,Rain,Light Rain,0,2013-11-23 03:51:00
11:10 PM,33.8,30.2,87,29.84,7.0,West,8.1,24.2,0.01,,Overcast,280,2013-11-23 04:10:00
11:51 PM,30.9,28.9,92,29.91,10.0,West,9.2,20.7,0.01,,Overcast,280,2013-11-23 04:51:00